Location: Abbots Worthy
(51.0833°N, 1.2833°W)
Time: 18:47:10
(UTC+00:00)

Daily predictions for brighter satellites

Satellite Brightness Start Highest point End
(mag) Time Altitude Azimuth Time Altitude Azimuth Time Altitude Azimuth
STARLINK-1202 4.1 20:54:54 10° W 20:59:02 66° N 21:03:11 10° E
CENTAUR R/B 3.3 20:53:54 10° NW 21:01:50 90° SW 21:10:37 10° SE
STARLINK-1254 3.7 20:57:44 10° WNW 21:01:54 82° NNE 21:06:04 10° ESE
STARLINK-1203 4.0 20:59:07 10° W 21:03:12 65° N 21:07:17 10° E
SPOT 5 3.6 20:58:38 10° SE 21:03:45 49° ENE 21:08:54 10° N
Spot 2 Rocket 3.6 20:59:00 10° SSE 21:04:03 87° WSW 21:09:09 10° NNW
Cosmos 1378 3.1 21:00:27 10° S 21:04:08 72° E 21:07:50 10° NNE
BREEZE-M DEB 3.5 21:02:41 10° SSW 21:04:55 27° SE 21:09:17 10° E
Cosmos 1110 Rocket 4.3 20:59:48 10° SSW 21:04:59 75° WNW 21:10:12 10° NNE
Cosmos 1066 Rocket 4.2 21:00:26 10° SSW 21:05:48 83° WNW 21:11:13 10° NNE
STARLINK-1231 3.7 21:02:43 10° WNW 21:06:53 84° NNE 21:11:02 10° ESE
Meteor 1-23 Rocket 4.4 21:01:48 10° SSW 21:07:27 79° WNW 21:13:06 10° N
Terra 2.7 21:03:17 10° SE 21:07:40 37° ENE 21:12:02 10° N
STARLINK-1246 4.1 21:04:54 10° W 21:09:01 66° N 21:13:10 10° E
USA 215 4.1 21:03:59 10° ENE 21:10:19 54° N 21:16:38 10° WNW
ATLAS 3B R/B 3.1 21:03:40 10° NW 21:10:21 61° NE 21:17:15 10° ESE
Cosmos 1378 Rocket 4.0 21:06:07 10° SSW 21:10:27 65° W 21:14:50 10° N
Cosmos 1726 4.3 21:09:12 10° NNE 21:11:29 15° ENE 21:13:44 10° ESE
STARLINK-1232 3.7 21:07:43 10° WNW 21:11:54 87° NNE 21:16:03 10° ESE
SAR-Lupe-2 3.7 21:09:32 10° NNE 21:13:06 58° ESE 21:16:39 10° S
Cosmos 1805 3.5 21:09:27 10° NNW 21:13:22 69° W 21:17:16 10° S
STARLINK-1224 4.1 21:09:52 10° W 21:14:01 66° N 21:18:08 10° E
NOSS 2-2 (D) 3.7 21:12:29 10° SW 21:16:06 66° NW 21:20:20 10° NE
Cosmos 1503 Rocket 4.4 21:11:03 10° NNW 21:16:18 56° ENE 21:21:34 10° SE
Cosmos 1331 Rocket 4.4 21:11:38 10° SW 21:16:47 68° WNW 21:22:00 10° NNE
STARLINK-1208 3.6 21:12:41 10° WNW 21:16:52 90° ENE 21:21:01 10° ESE
STARLINK-1444 2.3 21:16:10 10° SW 21:18:09 39° SSE 21:20:11 10° E
STARLINK-1452 2.3 21:16:48 10° SW 21:18:47 39° SSE 21:20:48 10° E
STARLINK-1225 4.0 21:14:52 10° W 21:19:01 66° N 21:23:08 10° E
Cosmos 1470 3.5 21:15:57 10° N 21:19:36 39° ENE 21:23:07 11° SE
STARLINK-1392 2.2 21:17:44 10° SW 21:19:40 39° SSE 21:21:38 10° E
STARLINK-1399 2.2 21:17:45 10° SW 21:19:41 39° SSE 21:21:40 10° E
APEX 4.3 21:13:42 10° S 21:19:42 52° ESE 21:24:34 10° NE
STARLINK-1393 2.2 21:17:47 10° SW 21:19:44 39° SSE 21:21:42 10° E
STARLINK-1394 2.2 21:17:49 10° SW 21:19:45 39° SSE 21:21:43 10° E
STARLINK-1397 2.2 21:17:51 10° SW 21:19:47 39° SSE 21:21:46 10° E
STARLINK-1395 2.2 21:17:53 10° SW 21:19:48 38° SSE 21:21:45 10° E
STARLINK-1396 2.2 21:17:52 10° SW 21:19:48 39° SSE 21:21:47 10° E
STARLINK-1414 2.2 21:17:53 10° SW 21:19:48 39° SSE 21:21:46 10° E
STARLINK-1408 2.2 21:17:55 10° SW 21:19:51 39° SSE 21:21:49 10° E
STARLINK-1404 2.2 21:17:56 10° SW 21:19:53 39° SSE 21:21:51 10° E
STARLINK-1416 2.2 21:17:57 10° SW 21:19:53 39° SSE 21:21:51 10° E
STARLINK-1415 2.2 21:17:57 10° SW 21:19:54 39° SSE 21:21:53 10° E
STARLINK-1450 2.2 21:17:57 10° SW 21:19:55 39° SSE 21:21:54 10° E
STARLINK-1406 2.2 21:18:01 10° SW 21:19:57 39° SSE 21:21:55 10° E
STARLINK-1401 2.2 21:18:00 10° SW 21:19:57 39° SSE 21:21:57 10° E
STARLINK-1417 2.2 21:18:03 10° SW 21:20:01 39° SSE 21:22:00 10° E
STARLINK-1402 2.2 21:18:04 10° SW 21:20:02 39° SSE 21:22:01 10° E
STARLINK-1413 2.2 21:18:04 10° SW 21:20:02 39° SSE 21:22:01 10° E
STARLINK-1419 2.2 21:18:05 10° SW 21:20:02 39° SSE 21:22:01 10° E
STARLINK-1422 2.2 21:18:10 10° SW 21:20:07 39° SSE 21:22:06 10° E
STARLINK-1453 2.2 21:18:10 10° SW 21:20:08 40° SSE 21:22:08 10° E
STARLINK-1398 2.2 21:18:10 10° SW 21:20:09 40° SSE 21:22:10 10° E
STARLINK-1420 2.2 21:18:13 10° SW 21:20:11 40° SSE 21:22:10 10° E
STARLINK-1440 2.2 21:18:13 10° SW 21:20:11 40° SSE 21:22:11 10° E
STARLINK-1436 (VISORSAT) 2.2 21:18:13 10° SW 21:20:12 40° SSE 21:22:13 10° E
STARLINK-1460 2.2 21:18:16 10° SW 21:20:14 40° SSE 21:22:13 10° E
STARLINK-1410 2.2 21:18:20 10° SW 21:20:18 40° SSE 21:22:17 10° E
STARLINK-1423 2.2 21:18:22 10° SW 21:20:19 39° SSE 21:22:18 10° E
STARLINK-1400 2.2 21:18:21 10° SW 21:20:19 40° SSE 21:22:18 10° E
STARLINK-1421 2.2 21:18:22 10° SW 21:20:19 39° SSE 21:22:18 10° E
STARLINK-1454 2.2 21:18:21 10° SW 21:20:19 40° SSE 21:22:19 10° E
STARLINK-1458 2.2 21:18:24 10° SW 21:20:21 40° SSE 21:22:20 10° E
STARLINK-1445 2.2 21:18:26 10° SW 21:20:24 40° SSE 21:22:24 10° E
STARLINK-1446 2.2 21:18:28 10° SW 21:20:26 40° SSE 21:22:26 10° E
STARLINK-1407 2.2 21:18:28 10° SW 21:20:26 40° SSE 21:22:26 10° E
STARLINK-1405 2.2 21:18:32 10° SW 21:20:27 39° SSE 21:22:25 10° E
STARLINK-1370 2.2 21:18:31 10° SW 21:20:29 40° SSE 21:22:29 10° E
STARLINK-1456 2.2 21:18:32 10° SW 21:20:29 40° SSE 21:22:29 10° E
STARLINK-1457 2.2 21:18:32 10° SW 21:20:29 40° SSE 21:22:29 10° E
STARLINK-1451 2.2 21:18:32 10° SW 21:20:30 40° SSE 21:22:29 10° E
STARLINK-1409 2.2 21:18:33 10° SW 21:20:30 40° SSE 21:22:30 10° E
STARLINK-1439 2.2 21:18:35 10° SW 21:20:31 39° SSE 21:22:28 10° E
STARLINK-1437 2.2 21:18:33 10° SW 21:20:31 40° SSE 21:22:31 10° E
STARLINK-1447 2.2 21:18:33 10° SW 21:20:31 40° SSE 21:22:31 10° E
STARLINK-1455 2.2 21:18:33 10° SW 21:20:31 40° SSE 21:22:31 10° E
STARLINK-1441 2.2 21:18:35 10° SW 21:20:33 40° SSE 21:22:32 10° E
STARLINK-1443 2.2 21:18:37 10° SW 21:20:35 40° SSE 21:22:36 10° E
STARLINK-1351 2.2 21:18:39 10° SW 21:20:37 40° SSE 21:22:37 10° E
STARLINK-1418 2.2 21:18:39 10° SW 21:20:37 40° SSE 21:22:37 10° E
STARLINK-1442 2.2 21:18:40 10° SW 21:20:38 40° SSE 21:22:38 10° E
STARLINK-1403 2.2 21:18:40 10° SW 21:20:38 40° SSE 21:22:38 10° E
STARLINK-1434 2.2 21:18:40 10° SW 21:20:38 40° SSE 21:22:39 10° E
STARLINK-1448 2.2 21:18:42 10° SW 21:20:40 40° SSE 21:22:40 10° E
STARLINK-1433 2.2 21:18:43 10° SW 21:20:41 40° SSE 21:22:41 10° E
STARLINK-1449 2.2 21:18:44 10° SW 21:20:43 40° SSE 21:22:43 10° E
STARLINK-1438 2.2 21:18:48 10° SW 21:20:45 40° SSE 21:22:45 10° E
STARLINK-1411 2.2 21:18:55 10° SW 21:20:52 40° SSE 21:22:52 10° E
STARLINK-1412 2.2 21:18:55 10° SW 21:20:52 40° SSE 21:22:53 10° E
BREEZE-M DEB (TANK) 4.2 21:02:36 10° WSW 21:21:21 61° SSE 21:25:53 10° E
STARLINK-1271 3.6 21:17:40 10° WNW 21:21:51 87° SSW 21:26:00 10° ESE
Cosmos 1733 3.3 21:19:50 10° NNW 21:23:39 77° W 21:27:25 10° S
STARLINK-1230 4.0 21:19:50 10° W 21:23:58 66° N 21:28:07 10° E
Meteor 1-22 Rocket 4.4 21:18:17 10° NNW 21:24:09 79° W 21:29:43 10° S
FALCON 9 DEB 4.0 21:21:49 10° SSW 21:24:48 28° SE 21:27:48 10° E
NOSS 3-2 (C) 4.3 21:17:53 10° NW 21:25:15 67° SW 21:33:29 10° SSE
STARLINK-60 2.8 21:22:58 10° WSW 21:26:07 70° SSE 21:29:17 10° ENE
BREEZE-M DEB (TANK) 2.9 21:21:39 10° W 21:26:23 73° S 21:29:52 10° E
STARLINK-1154 3.6 21:22:38 10° WNW 21:26:48 84° SSW 21:30:57 10° ESE
STARLINK-1235 4.2 21:23:45 10° W 21:26:52 32° SW 21:29:38 12° SSE
Cosmos 1340 Rocket 4.4 21:25:23 10° N 21:28:47 25° ENE 21:32:11 10° ESE
STARLINK-1243 4.0 21:24:51 10° W 21:29:00 67° N 21:33:08 10° E
SL-27 R/B 3.3 21:26:31 10° NW 21:29:57 44° WSW 21:33:17 10° S
CZ-2C R/B 4.4 21:25:02 10° N 21:30:09 37° WNW 21:35:14 10° SW
COSMOS 2455 3.6 21:25:19 10° S 21:30:31 32° ESE 21:35:46 10° NE
Cosmos 1302 Rocket 4.1 21:25:44 10° SSW 21:31:02 90° W 21:36:23 10° NNE
STARLINK-1197 3.6 21:27:37 10° WNW 21:31:47 81° SSW 21:35:56 10° ESE
Cosmos 1842 3.2 21:29:26 10° S 21:33:18 71° E 21:37:10 10° NNE
COSMOS 2487 3.3 21:30:04 10° N 21:33:22 38° ENE 21:36:14 12° SE
STARLINK-1236 4.0 21:29:50 10° WNW 21:33:58 67° N 21:38:06 10° E
Cosmos 1025 Rocket 4.0 21:30:38 12° SSE 21:34:06 31° E 21:37:55 10° NNE
STARLINK-1212 4.1 21:32:29 10° W 21:35:17 30° SW 21:37:28 14° SSE
STARLINK-1105 4.1 21:33:07 10° W 21:35:55 29° SW 21:38:05 14° SSE
SPOT 1/Viking Rocket 3.9 21:31:09 10° S 21:36:16 65° WSW 21:41:24 10° NNW
NOSS 3-4 (A) 3.7 21:30:57 10° SSW 21:36:35 47° ESE 21:42:37 10° NE
Cosmos 1975 Rocket 3.0 21:32:15 10° S 21:36:40 86° ESE 21:41:05 10° N
NOSS 3-4 (C) 3.7 21:31:02 10° SSW 21:36:42 47° ESE 21:42:44 10° NE
Cosmos 1486 Rocket 4.3 21:31:26 10° NNW 21:36:42 66° WSW 21:41:50 10° S
STARLINK-1198 3.6 21:32:36 10° WNW 21:36:46 77° SSW 21:40:54 10° ESE
STARLINK-1247 4.1 21:34:19 10° W 21:37:07 29° SW 21:39:14 14° SSE
STARLINK-1227 4.1 21:34:54 10° W 21:37:41 29° SW 21:39:47 14° SSE
Cosmos 2263 4.2 21:33:17 10° SSW 21:38:48 64° ESE 21:44:22 10° NE
STARLINK-1226 4.1 21:36:03 10° W 21:38:49 28° SW 21:40:54 14° SSE
Cosmos 1354 Rocket 4.1 21:33:30 10° NNW 21:38:50 73° ENE 21:43:37 13° SSE
STARLINK-1215 4.2 21:37:13 10° W 21:39:58 28° SW 21:42:02 15° SSE
Cosmos 292 Rocket 3.8 21:36:20 10° SSW 21:41:10 74° ESE 21:46:03 10° NNE
STARLINK-1199 3.6 21:37:34 10° WNW 21:41:44 74° SSW 21:45:43 11° ESE
Cosmos 1092 Rocket 4.1 21:35:46 10° S 21:41:54 83° W 21:48:08 10° N
STARLINK-1217 4.2 21:39:28 10° W 21:42:11 27° SW 21:44:10 15° SSE
EXPRESS MD2 3.6 21:39:30 10° WSW 21:42:54 75° S 21:49:40 10° E
ATLAS 5 CENTAUR R/B 3.2 21:39:06 10° S 21:43:07 20° SE 21:45:19 10° E
STARLINK-1229 4.2 21:40:34 10° W 21:43:17 26° SW 21:45:14 15° SSE
ERBS 4.2 21:40:22 10° NW 21:43:21 30° N 21:46:20 10° ENE
STARLINK-1269 3.9 21:39:49 10° WNW 21:43:57 69° N 21:48:06 10° E
Cosmos 1953 3.3 21:40:41 10° N 21:44:21 34° ENE 21:47:21 14° SE
RESURS DK-1 4.1 21:42:39 13° SE 21:44:23 16° ESE 21:46:57 10° ENE
Cosmos 2297 Rocket 4.0 21:39:53 10° NNW 21:44:23 23° NE 21:48:51 10° E
STARLINK-1270 4.3 21:41:42 10° W 21:44:26 26° SW 21:46:22 15° SSE
Cosmos 1943 Rocket 2.6 21:40:00 10° SW 21:45:32 68° WNW 21:51:11 10° NNE
Cosmos 1271 Rocket 3.1 21:42:54 12° S 21:46:22 48° E 21:50:14 10° NNE
STARLINK-1210 3.6 21:42:33 10° WNW 21:46:42 71° SSW 21:50:30 12° ESE
STARLINK-1189 4.3 21:44:05 10° W 21:46:46 25° SW 21:48:36 15° SSE
STARLINK-1188 4.3 21:45:18 10° W 21:47:58 25° SW 21:49:46 15° S
Lacrosse 4 Rocket 4.1 21:45:42 10° N 21:48:08 14° NNE 21:50:32 10° ENE
Cosmos 1992 Rocket 4.1 21:43:09 10° S 21:48:13 55° ESE 21:53:19 10° NNE
STARLINK-1200 3.9 21:44:47 10° WNW 21:48:56 70° N 21:53:05 10° E
STARLINK-1191 4.4 21:47:52 10° W 21:50:30 24° SW 21:52:14 15° S
STARLINK-1219 3.6 21:47:34 10° WNW 21:51:42 67° SSW 21:55:19 13° SE
STARLINK-1221 4.4 21:49:08 10° W 21:51:44 23° SW 21:53:25 15° S
STARLINK-1222 4.5 21:50:17 10° W 21:52:51 23° SW 21:54:30 16° S
SL-4 R/B 2.3 21:48:23 10° WSW 21:53:08 73° SSE 21:58:00 10° ENE
STARLINK-1192 3.9 21:49:48 10° WNW 21:53:56 72° N 21:58:05 10° E
Cosmos 1833 4.4 21:48:25 10° NW 21:54:01 68° WSW 21:58:53 14° SSE
STARLINK-1379 4.5 21:50:44 10° SSW 21:54:04 26° SE 21:57:26 10° E
STARLINK-1214 4.5 21:51:41 10° W 21:54:14 22° SW 21:55:50 16° S
Cosmos 1242 Rocket 2.5 21:52:41 10° SSW 21:56:22 89° W 22:00:04 10° NNE
STARLINK-1211 3.7 21:52:33 10° WNW 21:56:40 64° SSW 22:00:05 14° SE
STARLINK-1329 4.4 21:54:21 10° SSW 21:57:46 27° SE 22:01:12 10° E
Cosmos 1707 3.1 21:55:20 15° SSE 21:58:19 49° E 22:02:05 10° NNE
STARLINK-29 2.8 21:55:36 10° WSW 21:58:48 68° SSE 22:02:00 10° ENE
STARLINK-1244 3.8 21:54:46 10° WNW 21:58:55 73° N 22:03:03 10° E
STARLINK-1245 3.7 21:57:31 10° WNW 22:01:36 60° SSW 22:04:51 16° SE
STARLINK-1362 4.3 21:58:45 10° SSW 22:02:14 29° SE 22:05:44 10° E
Cosmos 1455 Rocket 3.7 21:58:15 10° NNW 22:02:27 49° W 22:06:35 10° SSW
Cosmos 1758 3.4 21:59:25 10° NNW 22:03:30 82° W 22:06:46 16° S
STARLINK-1138 3.8 21:59:44 10° WNW 22:03:53 75° N 22:08:03 10° E
ERS-1 Rocket 3.6 21:59:10 10° S 22:04:04 51° W 22:08:59 10° NNW
Timation 2 Rocket 4.4 21:58:08 10° NNW 22:04:23 58° NE 22:09:46 13° SE
ATLAS 2AS CENTAUR R/B 3.0 21:56:38 10° SSW 22:04:36 74° SE 22:12:30 10° NE
Cosmos 1656 Rocket 3.6 21:59:05 10° SSW 22:04:40 72° ESE 22:10:12 10° NNE
NOSS 5 (C) 4.3 22:03:23 10° NW 22:06:31 79° SW 22:09:05 19° SE
STARLINK-1233 3.8 22:02:30 10° WNW 22:06:35 57° SSW 22:09:38 17° SE
STARLINK-1373 4.2 22:03:09 10° SSW 22:06:41 31° SE 22:10:14 10° E
STARLINK-1143 3.8 22:04:44 10° WNW 22:08:54 77° NNE 22:13:03 10° E
STARLINK-1390 4.2 22:07:34 10° SSW 22:11:10 33° SE 22:14:47 10° E
STARLINK-1204 3.8 22:07:29 10° WNW 22:11:32 54° SSW 22:14:24 18° SE
Meteor 1-16 Rocket 4.4 22:06:13 10° N 22:11:39 60° ENE 22:15:41 17° SSE
ATLAS CENTAUR R/B 1.3 22:08:28 10° SW 22:12:48 76° SE 22:16:53 10° NE
Cosmos 968 Rocket 4.4 22:08:51 10° NW 22:13:40 41° WSW 22:17:57 12° S
STARLINK-1241 3.7 22:09:44 10° WNW 22:13:54 79° NNE 22:18:03 10° E
STARLINK-1320 3.4 22:11:19 10° SW 22:14:12 35° SSE 22:17:06 10° E
STARLINK-1322 3.4 22:11:40 10° SW 22:14:33 35° SSE 22:17:27 10° E
STARLINK-1324 3.4 22:11:57 10° SW 22:14:50 36° SSE 22:17:45 10° E
STARLINK-1294 3.4 22:12:17 10° SW 22:15:10 36° SSE 22:18:05 10° E
STARLINK-1261 3.4 22:12:39 10° SW 22:15:33 36° SSE 22:18:28 10° E
STARLINK-1325 3.4 22:13:00 10° SW 22:15:54 36° SSE 22:18:49 10° E
STARLINK-1333 3.4 22:13:22 10° SW 22:16:16 36° SSE 22:19:11 10° E
STARLINK-1238 3.9 22:12:29 10° WNW 22:16:31 51° SSW 22:19:12 19° SE
STARLINK-1334 3.4 22:13:39 10° SW 22:16:33 36° SSE 22:19:28 10° E
STARLINK-1326 3.3 22:13:58 10° SW 22:16:53 37° SSE 22:19:48 10° E
STARLINK-1365 4.1 22:13:13 10° SSW 22:16:56 36° SE 22:20:40 10° ENE
S3M 4.0 22:10:52 10° N 22:17:05 84° E 22:22:10 16° SSE
STARLINK-1323 3.3 22:14:21 10° SW 22:17:15 37° SSE 22:20:11 10° E
STARLINK-1349 3.3 22:14:37 10° SW 22:17:32 37° SSE 22:20:27 10° E
Meteor 1-21 4.4 22:12:10 10° SSW 22:17:46 72° WNW 22:23:23 10° N
STARLINK-1336 3.3 22:14:58 10° SW 22:17:52 37° SSE 22:20:49 10° E
SJ 16-02 3.7 22:15:09 10° N 22:18:04 17° NE 22:20:58 10° E
STARLINK-1331 3.3 22:15:20 10° SW 22:18:15 37° SSE 22:21:11 10° E
STARLINK-1344 3.3 22:15:39 10° SW 22:18:33 38° SSE 22:21:30 10° E
STARLINK-1239 3.7 22:14:43 10° WNW 22:18:53 81° NNE 22:23:03 10° ESE
STARLINK-1343 3.3 22:16:00 10° SW 22:18:56 38° SSE 22:21:52 10° E
STARLINK-1346 3.3 22:16:17 10° SW 22:19:13 38° SSE 22:22:11 10° E
STARLINK-1328 3.3 22:16:44 10° SW 22:19:39 38° SSE 22:22:35 10° E
Meteor 2-8 Rocket 4.5 22:13:33 10° N 22:19:45 90° E 22:24:44 17° S
STARLINK-1354 3.3 22:17:01 10° SW 22:19:56 38° SSE 22:22:53 10° E
STARLINK-1347 3.3 22:17:19 10° SW 22:20:14 38° SSE 22:23:11 10° E
STARLINK-1357 3.3 22:17:43 10° SW 22:20:39 39° SSE 22:23:36 10° E
STARLINK-1335 3.3 22:18:00 10° SW 22:20:56 39° SSE 22:23:53 10° E
Cosmos 1867 4.4 22:15:55 10° NW 22:20:57 39° WSW 22:24:50 16° S
Cosmos 2369 Rocket 3.0 22:15:45 10° SW 22:21:17 53° NW 22:26:49 10° NNE
STARLINK-1327 3.3 22:18:21 10° SW 22:21:18 39° SSE 22:24:14 10° E
STARLINK-1201 4.0 22:17:29 10° WNW 22:21:29 47° SSW 22:23:59 21° SE
STARLINK-1340 3.3 22:18:39 10° SW 22:21:36 39° SSE 22:24:33 10° E
Cosmos 2315 Rocket 4.5 22:15:49 10° N 22:21:51 50° ENE 22:26:32 17° SE
STARLINK-1356 3.2 22:19:01 10° SW 22:21:58 40° SSE 22:24:55 10° E
STARLINK-1345 3.2 22:19:20 10° SW 22:22:16 40° SSE 22:25:14 10° E
Cosmos 2227 Rocket 3.6 22:17:28 10° NNW 22:22:34 32° NE 22:27:38 10° ESE
STARLINK-1355 3.2 22:19:40 10° SW 22:22:38 40° SSE 22:25:36 10° E
STARLINK-1321 3.2 22:20:01 10° SW 22:22:59 40° SSE 22:25:57 10° E
BREEZE-M DEB (TANK) 4.2 22:19:14 10° SW 22:23:04 56° SSE 22:36:21 10° ENE
STARLINK-1358 3.2 22:20:24 10° SW 22:23:22 40° SSE 22:26:20 10° ENE
STARLINK-1332 3.2 22:20:41 10° SW 22:23:38 41° SSE 22:26:37 10° ENE
STARLINK-1240 3.6 22:19:40 10° WNW 22:23:50 83° NNE 22:28:00 10° ESE
STARLINK-1348 3.2 22:21:01 10° SW 22:23:59 41° SSE 22:26:57 10° ENE
STARLINK-1330 3.2 22:21:21 10° SW 22:24:19 41° SSE 22:27:17 10° ENE
STARLINK-1363 3.2 22:21:41 10° SW 22:24:38 41° SSE 22:27:37 10° ENE
STARLINK-1337 3.2 22:22:03 10° SW 22:25:01 41° SSE 22:28:00 10° ENE
STARLINK-1342 3.2 22:22:22 10° SW 22:25:20 42° SSE 22:28:19 10° ENE
STARLINK-1364 3.2 22:22:42 10° SW 22:25:40 42° SSE 22:28:39 10° ENE
STARLINK-1376 3.2 22:23:02 10° SW 22:26:00 42° SSE 22:28:59 10° ENE
STARLINK-1360 3.2 22:23:22 10° SW 22:26:21 42° SSE 22:29:20 10° ENE
STARLINK-1206 4.1 22:22:27 10° WNW 22:26:25 45° SSW 22:28:45 22° SSE
STARLINK-1361 3.1 22:23:43 10° SW 22:26:42 43° SSE 22:29:40 10° ENE
STARLINK-1367 3.2 22:23:59 10° SW 22:26:58 43° SSE 22:29:59 10° ENE
STARLINK-1366 3.1 22:24:21 10° SW 22:27:21 43° SSE 22:30:20 10° ENE
Cosmos 1553 Rocket 4.3 22:21:18 10° NNW 22:27:29 65° W 22:32:46 14° S
STARLINK-1338 3.8 22:24:34 10° SW 22:28:19 41° SSE 22:32:04 10° ENE
STARLINK-1216 3.6 22:24:40 10° WNW 22:28:50 86° NNE 22:33:00 10° ESE
STARLINK-1205 4.1 22:27:26 10° WNW 22:31:22 42° SSW 22:33:31 23° SSE
STARLINK-1237 3.6 22:29:39 10° WNW 22:33:48 89° N 22:37:58 10° ESE
STARLINK-52 2.9 22:30:55 10° WSW 22:34:09 87° NNW 22:37:22 10° ENE
Cosmos 1908 3.7 22:30:44 10° N 22:34:29 49° ENE 22:36:36 23° SE
STARLINK-1371 3.7 22:32:10 10° SW 22:35:54 45° SSE 22:39:40 10° ENE
Cosmos 1777 Rocket 4.0 22:30:56 10° NNW 22:36:13 83° ENE 22:39:51 20° SSE
STARLINK-1218 4.2 22:32:27 10° WNW 22:36:20 39° SW 22:38:19 24° SSE
Cosmos 1536 Rocket 3.6 22:33:06 15° SSW 22:36:42 76° WNW 22:41:06 10° N
Cosmos 2084 3.7 22:32:51 13° SSW 22:36:42 50° SE 22:41:03 10° NE
STARLINK-1202 3.6 22:34:38 10° WNW 22:38:48 88° SSW 22:42:45 11° ESE
STARLINK-1341 3.6 22:36:22 10° SW 22:40:09 48° SSE 22:43:56 10° ENE
JB-3 4.4 22:36:22 10° NNE 22:40:31 86° WNW 22:43:30 18° SSW
STARLINK-1254 4.3 22:37:27 10° WNW 22:41:18 37° SW 22:43:06 24° SSE
STARLINK-1203 3.5 22:38:36 10° WNW 22:42:42 86° SSW 22:46:22 13° ESE
KORONAS-FOTON 4.4 22:42:06 25° SSE 22:43:57 43° E 22:47:40 10° NNE
STARLINK-1374 3.6 22:41:25 10° SW 22:45:16 51° SSE 22:49:09 10° ENE
In-Cosmos 22 4.0 22:41:25 18° S 22:45:25 79° E 22:50:45 10° NNE
Terra 3.1 22:41:36 12° SSW 22:45:26 33° W 22:49:46 10° NNW
Thor Agena Rocket 3.7 22:40:49 10° NNE 22:46:05 63° ESE 22:49:40 20° S
STARLINK-1231 4.4 22:42:27 10° W 22:46:15 35° SW 22:47:53 25° S
Cosmos 1726 2.6 22:43:22 10° NNW 22:47:02 55° W 22:49:12 22° SSW
Cosmos 1300 4.3 22:43:49 10° NNE 22:47:02 25° ENE 22:49:12 16° ESE
STARLINK-1246 3.5 22:44:36 10° WNW 22:48:46 82° SSW 22:52:19 14° ESE
Meteor 2-5 Rocket 4.3 22:46:11 20° SSE 22:49:34 42° E 22:54:54 10° NNE
STARLINK-1339 3.5 22:45:42 10° SW 22:49:35 54° SSE 22:53:29 10° ENE
STARLINK-1232 4.5 22:47:30 10° W 22:51:13 32° SW 22:52:41 25° S
STARLINK-1444 2.8 22:49:56 10° W 22:52:02 50° N 22:54:11 10° ENE
CENTAUR R/B 4.3 22:45:12 10° WNW 22:52:02 31° WSW 22:58:21 13° SSW
Cosmos 2266 Rocket 3.9 22:47:46 18° S 22:52:29 85° E 22:58:33 10° N
STARLINK-1452 2.8 22:50:36 10° W 22:52:39 49° N 22:54:47 10° ENE
USA 215 3.7 22:46:26 10° E 22:52:55 66° NNE 22:59:25 10° WNW
Cosmos 2292 Rocket 2.6 22:51:50 29° S 22:53:21 82° E 22:56:19 10° N
STARLINK-1392 2.8 22:51:28 10° W 22:53:29 48° N 22:55:33 10° ENE
STARLINK-1399 2.8 22:51:30 10° W 22:53:31 49° N 22:55:36 10° ENE
STARLINK-1393 2.8 22:51:32 10° W 22:53:33 48° N 22:55:38 10° ENE
STARLINK-1394 2.8 22:51:33 10° W 22:53:34 48° N 22:55:39 10° ENE
STARLINK-1395 2.8 22:51:38 10° W 22:53:38 48° N 22:55:40 10° ENE
STARLINK-1397 2.8 22:51:36 10° W 22:53:38 49° N 22:55:42 10° ENE
STARLINK-1396 2.8 22:51:37 10° W 22:53:38 49° N 22:55:42 10° ENE
STARLINK-1414 2.8 22:51:38 10° W 22:53:39 48° N 22:55:42 10° ENE
STARLINK-1408 2.8 22:51:41 10° W 22:53:41 48° N 22:55:45 10° ENE
STARLINK-1404 2.8 22:51:41 10° W 22:53:43 49° N 22:55:47 10° ENE
STARLINK-1224 3.5 22:49:34 10° WNW 22:53:43 79° SSW 22:57:05 15° ESE
STARLINK-1416 2.8 22:51:43 10° W 22:53:43 48° N 22:55:47 10° ENE
STARLINK-1415 2.8 22:51:43 10° W 22:53:45 49° N 22:55:50 10° ENE
STARLINK-1450 2.8 22:51:44 10° W 22:53:47 49° N 22:55:52 10° ENE
STARLINK-1406 2.8 22:51:47 10° W 22:53:47 48° N 22:55:51 10° ENE
STARLINK-1401 2.8 22:51:46 10° W 22:53:48 49° N 22:55:53 10° ENE
STARLINK-1417 2.8 22:51:49 10° W 22:53:52 49° N 22:55:57 10° ENE
STARLINK-1402 2.8 22:51:50 10° W 22:53:53 49° N 22:55:58 10° ENE
STARLINK-1413 2.8 22:51:50 10° W 22:53:53 49° N 22:55:58 10° ENE
STARLINK-1419 2.8 22:51:51 10° W 22:53:53 48° N 22:55:57 10° ENE
STARLINK-1377 3.5 22:50:00 10° SW 22:53:53 57° SSE 22:57:49 10° ENE
STARLINK-1422 2.8 22:51:57 10° W 22:53:58 49° N 22:56:03 10° ENE
STARLINK-1453 2.8 22:51:57 10° W 22:53:59 49° N 22:56:05 10° ENE
STARLINK-1398 2.8 22:51:58 10° W 22:54:01 49° N 22:56:08 10° ENE
STARLINK-1420 2.8 22:52:00 10° W 22:54:02 49° N 22:56:08 10° ENE
STARLINK-1440 2.8 22:52:02 10° W 22:54:04 49° N 22:56:10 10° ENE
STARLINK-1436 (VISORSAT) 2.8 22:52:01 10° W 22:54:05 49° N 22:56:12 10° ENE
STARLINK-1460 2.8 22:52:03 10° W 22:54:05 49° N 22:56:11 10° ENE
STARLINK-1410 2.8 22:52:07 10° W 22:54:10 49° N 22:56:15 10° ENE
STARLINK-1423 2.8 22:52:09 10° W 22:54:10 48° N 22:56:15 10° ENE
STARLINK-1421 2.8 22:52:09 10° W 22:54:10 48° N 22:56:15 10° ENE
STARLINK-1400 2.8 22:52:08 10° W 22:54:11 49° N 22:56:16 10° ENE
STARLINK-1454 2.8 22:52:09 10° W 22:54:12 49° N 22:56:17 10° ENE
STARLINK-1458 2.8 22:52:12 10° W 22:54:14 48° N 22:56:19 10° ENE
STARLINK-1445 2.8 22:52:14 10° W 22:54:16 49° N 22:56:22 10° ENE
STARLINK-1407 2.8 22:52:16 10° W 22:54:18 49° N 22:56:24 10° ENE
STARLINK-1446 2.8 22:52:16 10° W 22:54:18 49° N 22:56:24 10° ENE
STARLINK-1405 2.8 22:52:19 10° W 22:54:19 48° N 22:56:22 10° ENE
STARLINK-1370 2.8 22:52:18 10° W 22:54:21 49° N 22:56:27 10° ENE
STARLINK-1456 2.8 22:52:20 10° W 22:54:22 48° N 22:56:27 10° ENE
STARLINK-1457 2.8 22:52:20 10° W 22:54:22 48° N 22:56:27 10° ENE
STARLINK-1451 2.8 22:52:20 10° W 22:54:22 48° N 22:56:27 10° ENE
STARLINK-1439 2.8 22:52:23 10° W 22:54:22 48° N 22:56:26 10° ENE
STARLINK-1409 2.8 22:52:21 10° W 22:54:23 48° N 22:56:28 10° ENE
STARLINK-1447 2.8 22:52:21 10° W 22:54:23 49° N 22:56:29 10° ENE
STARLINK-1455 2.8 22:52:21 10° W 22:54:24 49° N 22:56:30 10° ENE
STARLINK-1437 2.8 22:52:22 10° W 22:54:25 48° N 22:56:29 10° ENE
STARLINK-1441 2.8 22:52:23 10° W 22:54:26 49° N 22:56:32 10° ENE
STARLINK-1443 2.8 22:52:25 10° W 22:54:28 49° N 22:56:35 10° ENE
STARLINK-1351 2.8 22:52:27 10° W 22:54:30 49° N 22:56:36 10° ENE
STARLINK-1418 2.8 22:52:27 10° W 22:54:30 49° N 22:56:36 10° ENE
STARLINK-1403 2.8 22:52:28 10° W 22:54:31 49° N 22:56:37 10° ENE
STARLINK-1434 2.8 22:52:28 10° W 22:54:31 49° N 22:56:38 10° ENE
STARLINK-1442 2.8 22:52:28 10° W 22:54:31 49° N 22:56:37 10° ENE
STARLINK-1448 2.8 22:52:30 10° W 22:54:33 49° N 22:56:39 10° ENE
STARLINK-1433 2.8 22:52:31 10° W 22:54:34 49° N 22:56:40 10° ENE
STARLINK-1449 2.8 22:52:33 10° W 22:54:36 49° N 22:56:42 10° ENE
STARLINK-1438 2.8 22:52:37 10° W 22:54:38 48° N 22:56:44 10° ENE
STARLINK-1411 2.8 22:52:44 10° W 22:54:46 48° N 22:56:52 10° ENE
STARLINK-1412 2.8 22:52:44 10° W 22:54:46 49° N 22:56:52 10° ENE
Cosmos 1674 2.7 22:53:25 27° S 22:55:18 63° E 22:59:06 10° NNE
STARLINK-1353 3.5 22:54:16 10° SW 22:58:12 60° SSE 23:02:09 10° ENE
STARLINK-1225 3.5 22:54:33 10° WNW 22:58:42 75° SSW 23:01:52 17° ESE
Cosmos 1655 Rocket 4.3 22:54:05 13° SSW 22:59:45 68° WNW 23:06:03 10° N
ATLAS 3B R/B 3.3 22:54:35 10° NW 23:00:55 42° WSW 23:05:20 20° S
FALCON 9 DEB 3.1 22:58:10 10° WSW 23:01:36 85° NNW 23:05:04 10° ENE
STARLINK-60 3.5 22:59:08 10° W 23:02:17 59° N 23:05:27 10° ENE
STARLINK-1375 3.4 22:58:36 10° SW 23:02:33 63° SSE 23:06:31 10° ENE
STARLINK-1230 3.5 22:59:32 10° WNW 23:03:40 72° SSW 23:06:38 18° ESE
SeaSat 1 3.0 23:00:30 10° NE 23:05:10 40° ESE 23:07:34 24° SSE
Cosmos 1340 Rocket 3.9 23:01:34 10° NNW 23:05:21 37° W 23:07:46 19° SSW
Cosmos 1606 Rocket 3.5 23:01:40 10° NNW 23:06:03 85° WSW 23:08:26 26° S
BREEZE M DEB (TANK) 1.5 23:04:06 10° W 23:06:39 60° S 23:06:47 58° SSE
STARLINK-1350 3.4 23:02:54 10° WSW 23:06:52 66° SSE 23:10:50 10° ENE
Cosmos 2058 Rocket 3.5 23:02:58 10° N 23:07:23 55° ENE 23:09:53 24° SE
STARLINK-1243 3.5 23:04:32 10° WNW 23:08:40 68° SSW 23:11:26 20° SE
STARLINK-1352 3.4 23:07:16 10° WSW 23:11:16 70° SSE 23:15:15 10° ENE
STARLINK-1236 3.6 23:09:30 10° WNW 23:13:37 65° SSW 23:16:12 22° SE
STARLINK-1368 3.4 23:11:41 10° WSW 23:15:40 73° SSE 23:19:40 10° ENE
COSMOS 2455 3.3 23:10:10 10° SW 23:16:08 63° NW 23:22:09 10° NE
ALOS 2 2.6 23:14:35 26° SSE 23:17:00 76° ENE 23:21:25 10° NNW
STARLINK-1369 3.3 23:15:24 10° WSW 23:19:21 75° SSE 23:23:19 10° ENE
ERBS 2.4 23:16:42 10° WNW 23:20:01 72° NNE 23:22:15 19° ESE
Cosmos 1953 4.1 23:17:22 10° NW 23:20:36 24° W 23:23:02 14° SW
RESURS DK-1 2.6 23:18:30 15° SW 23:21:55 68° NW 23:26:04 10° NNE
Cosmos 1626 2.6 23:20:51 30° SSE 23:22:14 47° E 23:25:50 10° NNE
Aureole 3 4.0 23:19:37 10° NNW 23:22:19 29° W 23:23:23 22° SW
STARLINK-1269 3.7 23:19:29 10° WNW 23:23:33 58° SSW 23:25:46 25° SE
STARLINK-1372 3.4 23:19:50 10° WSW 23:23:47 78° SSE 23:27:46 10° ENE
NOSS 3-4 (A) 4.3 23:21:34 10° WSW 23:27:28 52° NNW 23:33:53 10° NE
NOSS 3-4 (C) 4.3 23:21:39 10° WSW 23:27:34 52° NW 23:33:59 10° NE
Lacrosse 4 Rocket 2.2 23:23:37 10° NNW 23:27:52 50° NE 23:31:03 16° ESE
STARLINK-1378 3.4 23:24:14 10° WSW 23:28:12 82° SSE 23:32:12 10° ENE
STARLINK-1200 3.7 23:24:28 10° WNW 23:28:31 55° SSW 23:30:33 27° SE
Cosmos 2228 3.5 23:24:36 10° NNW 23:28:44 51° W 23:30:53 25° SSW
Cosmos 2297 Rocket 2.2 23:23:32 10° NNW 23:29:15 88° ENE 23:32:59 22° SSE
Meteor 1-24 Rocket 3.8 23:27:06 25° S 23:30:16 66° E 23:35:49 10° NNE
Cosmos 1656 4.3 23:27:54 24° SSE 23:30:40 40° ESE 23:35:51 10° NE
Cosmos 1898 Rocket 4.0 23:26:03 10° NNW 23:31:19 55° ENE 23:35:13 18° SE
Cosmos 921 Rocket 2.9 23:29:32 27° SSW 23:31:52 81° ESE 23:36:17 10° NNE
Cosmos 220 Rocket 4.0 23:29:35 27° SSW 23:31:59 75° ESE 23:36:27 10° NNE
STARLINK-1379 3.4 23:28:43 10° WSW 23:32:42 85° SSE 23:36:42 10° ENE
SL-4 R/B 2.4 23:28:07 10° W 23:32:58 83° N 23:37:49 10° E
Cosmos 2219 3.2 23:27:29 10° NNW 23:33:09 75° WSW 23:36:33 25° SSE
SL-4 R/B 0.9 23:33:29 51° W 23:33:29 51° W 23:35:29 10° NNW
STARLINK-1192 3.8 23:29:28 10° WNW 23:33:30 52° SSW 23:35:20 28° SSE
CZ-4C R/B 3.0 23:31:35 24° SSE 23:33:30 31° ESE 23:38:35 10° ENE
STARLINK-29 3.5 23:31:50 10° W 23:35:01 59° N 23:38:12 10° ENE
Meteor 2-14 Rocket 4.5 23:31:51 24° S 23:35:43 72° E 23:41:52 10° NNE
STARLINK-1329 3.4 23:32:27 10° WSW 23:36:27 87° SSE 23:40:27 10° ENE
EO 1 Del DPAF 4.2 23:33:52 10° N 23:37:27 41° WNW 23:39:56 18° SW
STARLINK-1244 3.8 23:34:26 10° WNW 23:38:27 49° SSW 23:40:06 30° SSE
STARLINK-1362 3.4 23:36:57 10° WSW 23:40:56 90° SSE 23:44:57 10° ENE
Cosmos 990 Rocket 4.2 23:35:46 10° NNW 23:41:02 67° ENE 23:44:36 21° SE
ATLAS CENTAUR R/B 0.8 23:40:29 10° WNW 23:42:35 70° SSW 23:43:35 36° SE
STARLINK-1138 3.9 23:39:25 10° WNW 23:43:23 46° SSW 23:44:52 31° SSE
Cosmos 2082 4.0 23:38:02 10° NNW 23:43:41 64° NE 23:48:10 16° SE
STARLINK-1373 3.5 23:41:25 10° WSW 23:45:25 87° NNW 23:49:26 10° ENE
STARLINK-1143 4.0 23:44:25 10° WNW 23:48:22 43° SSW 23:49:39 32° SSE
Cosmos 1726 Rocket 4.4 23:45:06 10° NNW 23:49:09 40° W 23:51:18 23° SW
Helios 1A 2.9 23:47:32 30° SSE 23:49:34 89° ENE 23:53:47 10° NNW
Okean 1-7 Rocket 3.6 23:47:20 28° SSW 23:49:45 82° W 23:54:21 10° N
STARLINK-1320 3.1 23:46:47 10° W 23:49:54 71° NNW 23:53:01 10° ENE
STARLINK-1390 3.5 23:45:56 10° WSW 23:49:56 85° NNW 23:53:57 10° ENE
STARLINK-1322 3.1 23:47:08 10° W 23:50:15 71° NNW 23:53:22 10° ENE
STARLINK-1324 3.1 23:47:26 10° W 23:50:32 71° NNW 23:53:41 10° ENE
STARLINK-1294 3.1 23:47:46 10° W 23:50:53 71° N 23:54:01 10° ENE
STARLINK-1261 3.1 23:48:09 10° W 23:51:16 70° N 23:54:23 10° ENE
EO 1 Delta rocket 4.1 23:46:02 10° NNE 23:51:21 64° E 23:53:51 27° S
STARLINK-1325 3.1 23:48:29 10° W 23:51:37 70° NNW 23:54:44 10° ENE
STARLINK-1333 3.1 23:48:52 10° W 23:51:59 70° NNW 23:55:07 10° ENE
ATLAS CENTAUR R/B 3.7 23:48:37 10° W 23:52:06 24° NNW 23:55:25 10° NNE
STARLINK-1334 3.1 23:49:09 10° W 23:52:16 70° NNW 23:55:24 10° ENE
STARLINK-1326 3.1 23:49:28 10° W 23:52:35 70° NNW 23:55:42 10° ENE
STARLINK-1323 3.1 23:49:51 10° W 23:52:58 70° NNW 23:56:06 10° ENE
STARLINK-1349 3.1 23:50:08 10° W 23:53:15 69° NNW 23:56:23 10° ENE
STARLINK-1241 4.1 23:49:26 10° WNW 23:53:20 40° SSW 23:54:28 33° S
STARLINK-1336 3.1 23:50:28 10° W 23:53:36 69° NNW 23:56:44 10° ENE
STARLINK-1331 3.1 23:50:52 10° W 23:53:59 69° NNW 23:57:06 10° ENE
Cosmos 1892 Rocket 3.8 23:51:40 25° SSW 23:54:06 61° WNW 23:58:26 10° N
STARLINK-1344 3.1 23:51:10 10° W 23:54:17 69° NNW 23:57:25 10° ENE
STARLINK-1343 3.1 23:51:33 10° W 23:54:39 69° N 23:57:47 10° ENE
STARLINK-1346 3.2 23:51:49 10° W 23:54:57 69° NNW 23:58:06 10° ENE
STARLINK-1328 3.1 23:52:16 10° W 23:55:23 69° N 23:58:30 10° ENE
STARLINK-1354 3.1 23:52:33 10° W 23:55:40 68° N 23:58:47 10° ENE
STARLINK-1365 3.6 23:51:50 10° WSW 23:55:53 81° NNW 23:59:56 10° ENE
STARLINK-1347 3.1 23:52:51 10° W 23:55:58 68° N 23:59:05 10° ENE
STARLINK-1357 3.2 23:53:16 10° W 23:56:23 68° NNW 23:59:30 10° ENE
Cosmos 1437 2.4 23:55:39 47° SSW 23:56:24 85° WNW 23:59:26 10° NNE
STARLINK-1335 3.2 23:53:33 10° W 23:56:41 68° N 23:59:48 10° ENE
